[[{"header":{"parameterUnit":"m.s-1","parameterCategory":1,"la1":30.2991,"la2":30.254,"lo1":-89.0895,"lo2":-89.0444,"dy":0.0017,"dx":0.0017,"nx":28,"ny":28,"refTime":"2025-04-13T09:00:00:Z","depth":0,"parameterNumber":2,"parameterNumberName":"U-component_of_WINDS"},"data":[0,0,0,0,0,0,0,0,0,0,0,0,0,0,0,0,0,0,0,0,0,0,0,0,0,0,0,0,0,0,0,0,0,0,0,0,0,0,0,0,0,0,0,0,0,0,0,0,0,0,0,0,0,0,0,0,0,0,3.4824,3.4825,0,3.4951,3.4952,3.4953,3.4918,3.4915,3.4912,3.491,3.5039,3.5045,3.505,0,0,0,0,0,0,0,0,0,0,0,0,0,3.4547,3.4552,3.4824,3.4825,3.4827,3.495,3.4952,3.4954,3.4918,3.4915,3.4912,3.4909,3.5037,3.5044,3.5051,0,0,0,0,0,0,0,0,0,0,0,0,0,3.467,3.4554,3.4823,3.4824,3.4825,3.495,3.4952,3.4954,3.4919,3.4915,3.4911,3.4907,3.5035,3.5043,3.5052,3.5184,0,0,3.5079,3.5082,0,0,0,0,0,0,0,0,3.4663,3.468,3.4822,3.4824,3.4826,3.4914,3.4902,3.5031,3.492,3.4883,3.491,3.4905,3.5001,3.5012,3.5044,3.519,3.5195,3.5079,3.5085,3.5089,3.5091,0,0,0,0,0,0,0,3.4654,3.4674,3.4874,3.4824,3.4826,3.4817,3.483,3.4926,3.4962,3.4886,3.4884,3.4899,3.5001,3.5036,3.5047,3.5197,3.5079,3.5087,3.5092,3.5096,3.5452,3.5456,0,0,0,0,0,0,3.4645,3.4667,3.487,3.4878,3.4733,3.4825,3.4839,3.489,3.4961,3.4968,3.4902,3.4897,3.5023,3.5037,3.5051,3.5206,3.5088,3.5097,3.5102,3.5448,3.5453,3.5458,0,0,0,0,0,0,3.4639,3.4663,3.4865,3.4772,3.4797,3.4834,3.489,3.4894,3.4929,3.4973,3.4979,3.4932,3.502,3.5039,3.515,3.521,3.5101,3.5109,3.5443,3.5449,3.5455,3.552,0,0,0,0,0,0,3.4631,3.4661,3.4713,3.4773,3.4802,3.4962,3.4894,3.49,3.4945,3.4939,3.5002,3.5009,3.5019,3.5137,3.5159,3.5221,3.5115,3.5438,3.5446,3.5453,3.5513,3.5528,3.5541,0,0,0,0,0,3.4622,3.4727,3.4716,3.474,3.4867,3.4966,3.4982,3.4991,3.495,3.5001,3.5028,3.5007,3.5201,3.5149,3.5173,3.5238,3.5434,3.5444,3.5453,3.5506,3.5525,3.554,0,0,0,0,0,0,3.4673,3.4735,3.4723,3.4852,3.4904,3.496,3.5024,3.5011,3.5076,3.5068,3.5076,3.509,3.5203,3.5232,3.5173,3.5367,3.5311,3.5326,3.5344,3.5362,3.5375,3.5365,3.5123,0,0,0,0,0,3.4699,3.4775,3.4825,3.4933,3.496,3.4988,3.5031,3.5034,3.5088,3.511,3.5146,3.5199,3.527,3.5318,3.5388,3.5517,3.5528,3.5574,3.5588,3.5599,3.5611,3.5677,3.5697,3.5489,3.5489,3.5488,0,0,3.4754,3.4798,3.4845,3.4945,3.4985,3.5062,3.5007,3.5091,3.5147,3.5122,3.5228,3.5256,3.5316,3.5435,3.549,3.5463,3.5671,3.5611,3.562,3.5626,3.5689,3.5709,3.5726,3.5495,3.5494,3.5493,0,0,3.4893,3.4935,3.5027,3.5069,3.5131,3.5148,3.517,3.5228,3.5245,3.5352,3.5333,3.54,3.5526,3.5568,3.5605,3.5756,3.5738,3.5779,3.5851,3.5916,3.5932,3.5947,3.5997,3.6015,3.5791,3.5791,3.5792,0,3.4953,3.5068,3.5077,3.5162,3.5204,3.5185,3.5277,3.5317,3.5398,3.5428,3.5397,3.5551,3.559,3.5717,3.5753,3.5786,3.5809,3.5771,3.5929,3.5944,3.5958,3.6005,3.6024,3.5796,3.5795,3.5795,3.5794,0,3.5137,3.5217,3.5285,3.5362,3.5413,3.5502,3.5521,3.5571,3.5569,3.5589,3.5695,3.5741,3.5817,3.5848,3.5848,3.5974,3.5955,3.5927,3.587,3.5982,3.6026,3.6045,3.5802,3.58,3.5799,3.5798,0,0,3.5311,3.5391,3.5415,3.5448,3.5514,3.5575,3.5662,3.5736,3.5777,3.5834,3.5904,3.6009,3.5982,3.6025,3.6029,3.6086,3.6197,3.605,3.6051,3.6072,3.6335,3.6353,3.6374,3.6186,3.619,3.6193,3.6328,0,3.5452,3.5604,3.5612,3.5749,3.5821,3.5803,3.5877,3.5924,3.5945,3.6008,3.6031,3.6104,3.6065,3.609,3.6146,3.6172,3.6249,3.6163,3.6249,3.6252,3.6231,3.6398,3.6418,3.6544,3.6346,3.6349,3.6352,0,3.5637,3.5697,3.5841,3.5893,3.5923,3.599,3.6057,3.6118,3.6171,3.6181,3.6228,3.6222,3.6308,3.625,3.6367,3.6307,3.6343,3.6361,3.6366,3.6372,3.6306,3.6404,3.6585,3.6602,3.638,3.6378,3.6376,0,3.5743,3.5861,3.5961,3.5991,3.6056,3.6102,3.6131,3.618,3.6223,3.6281,3.6308,3.6376,3.6413,3.6464,3.6476,3.6434,3.6591,3.6536,3.66,3.6599,3.6632,3.6629,3.6816,3.6661,3.6661,3.666,3.666,0,3.5898,3.5985,3.601,3.6071,3.6167,3.6176,3.6271,3.6297,3.634,3.6404,3.6393,3.6454,3.6467,3.653,3.654,3.6632,3.665,3.6659,3.666,3.6658,3.6656,3.6679,3.6669,3.6666,3.6664,3.6663,3.6663,0,3.6032,3.6053,3.616,3.6212,3.6227,3.6295,3.6338,3.6396,3.6415,3.6496,3.6516,3.6545,3.6617,3.6635,3.6723,3.6729,3.6837,3.6832,3.6819,3.6817,3.6879,3.6871,3.7085,3.7111,3.6942,3.6944,3.6945,0,3.6128,3.6194,3.6252,3.6295,3.6325,3.6394,3.6437,3.6448,3.6493,3.6555,3.6605,3.6676,3.6733,3.685,3.6878,3.6944,3.6937,3.7008,3.6947,3.6941,3.6933,3.6927,3.6932,3.7018,3.702,3.7021,3.7022,0,3.6293,3.6299,3.6362,3.6428,3.6479,3.6531,3.6581,3.6616,3.6633,3.6684,3.6758,3.6802,3.689,3.6959,3.7025,3.7053,3.7039,3.7042,3.7059,3.7056,3.7044,3.7047,3.6846,3.7036,3.7035,3.7034,3.7033,3.7032,3.6408,3.6465,3.6514,3.6583,3.6621,3.6667,3.6723,3.6748,3.681,3.6881,3.6884,3.6963,3.7011,3.7097,3.7129,3.719,3.7168,3.7195,3.7201,3.7206,3.7209,3.7037,3.7202,3.7202,3.7202,3.7201,3.7201,0,3.6569,3.6599,3.6663,3.6732,3.6786,3.677,3.6823,3.6868,3.6938,3.6984,3.704,3.7123,3.719,3.7223,3.7288,3.733,3.7325,3.7347,3.7342,3.7348,3.7227,3.7204,3.7349,3.7349,3.7349,3.7349,3.7349,3.7349,3.6659,3.6752,3.6764,3.6875,3.6905,3.6982,3.7013,3.7055,3.7091,3.7184,3.7239,3.726,3.73,3.7368,3.7427,3.7435,3.7458,3.7481,3.7486,3.7372,3.7357,3.7342,3.732,3.7487,3.7488,3.76,3.7601,3.7602]},{"header":{"parameterUnit":"m.s-1","parameterCategory":1,"la1":30.2991,"la2":30.254,"lo1":-89.0895,"lo2":-89.0444,"dy":0.0017,"dx":0.0017,"nx":28,"ny":28,"refTime":"2025-04-13T09:00:00:Z","depth":0,"parameterNumber":3,"parameterNumberName":"V-component_of_WINDS"},"data":[0,0,0,0,0,0,0,0,0,0,0,0,0,0,0,0,0,0,0,0,0,0,0,0,0,0,0,0,0,0,0,0,0,0,0,0,0,0,0,0,0,0,0,0,0,0,0,0,0,0,0,0,0,0,0,0,0,0,3.1891,3.1892,0,3.1974,3.1975,3.1976,3.1953,3.1952,3.195,3.1948,3.203,3.2034,3.2038,0,0,0,0,0,0,0,0,0,0,0,0,0,3.1709,3.1712,3.1891,3.1892,3.1893,3.1974,3.1975,3.1976,3.1954,3.1952,3.195,3.1948,3.2029,3.2034,3.2038,0,0,0,0,0,0,0,0,0,0,0,0,0,3.1789,3.1713,3.1891,3.1892,3.1893,3.1974,3.1975,3.1976,3.1954,3.1952,3.1949,3.1947,3.2028,3.2033,3.2039,3.2123,0,0,3.2056,3.2058,0,0,0,0,0,0,0,0,3.1785,3.1796,3.189,3.1892,3.1893,3.1951,3.1941,3.2025,3.1955,3.1931,3.1948,3.1946,3.2006,3.2013,3.2034,3.2127,3.213,3.2056,3.206,3.2062,3.2064,0,0,0,0,0,0,0,3.1779,3.1792,3.1924,3.1892,3.1893,3.1886,3.1895,3.1957,3.1981,3.1933,3.1931,3.1941,3.2006,3.2029,3.2036,3.2132,3.2056,3.2061,3.2065,3.2067,3.2295,3.2297,0,0,0,0,0,0,3.1773,3.1788,3.1921,3.1926,3.1832,3.1892,3.1901,3.1935,3.198,3.1985,3.1943,3.194,3.202,3.2029,3.2038,3.2138,3.2062,3.2067,3.2071,3.2292,3.2295,3.2298,0,0,0,0,0,0,3.1769,3.1785,3.1918,3.1857,3.1873,3.1897,3.1935,3.1938,3.196,3.1989,3.1992,3.1962,3.2019,3.2031,3.2102,3.2141,3.207,3.2075,3.2289,3.2293,3.2297,3.234,0,0,0,0,0,0,3.1764,3.1784,3.1818,3.1858,3.1876,3.1981,3.1937,3.1941,3.197,3.1967,3.2007,3.2012,3.2018,3.2093,3.2107,3.2147,3.2079,3.2285,3.2291,3.2295,3.2335,3.2345,3.2353,0,0,0,0,0,3.1758,3.1826,3.1819,3.1836,3.1919,3.1984,3.1994,3.2,3.1974,3.2007,3.2024,3.201,3.2135,3.2101,3.2116,3.2159,3.2283,3.2289,3.2295,3.2331,3.2343,3.2353,0,0,0,0,0,0,3.179,3.1832,3.1824,3.1908,3.1943,3.198,3.2022,3.2013,3.2055,3.205,3.2055,3.2064,3.2136,3.2155,3.2117,3.2241,3.2205,3.2214,3.2227,3.2238,3.2247,3.2241,3.2084,0,0,0,0,0,3.1807,3.1857,3.189,3.1961,3.1979,3.1997,3.2026,3.2027,3.2062,3.2077,3.21,3.2133,3.2179,3.221,3.2254,3.2337,3.2345,3.2374,3.2383,3.239,3.2398,3.2441,3.2453,3.2318,3.2318,3.2318,0,0,3.1842,3.1871,3.1903,3.1968,3.1995,3.2045,3.201,3.2065,3.2101,3.2085,3.2153,3.2171,3.2208,3.2285,3.232,3.2303,3.2437,3.2398,3.2404,3.2408,3.2448,3.2461,3.2472,3.2322,3.2321,3.2321,0,0,3.1932,3.196,3.2021,3.2048,3.2089,3.2101,3.2115,3.2153,3.2165,3.2233,3.2221,3.2264,3.2344,3.2371,3.2395,3.2492,3.248,3.2507,3.2554,3.2596,3.2606,3.2616,3.2648,3.266,3.2514,3.2514,3.2515,0,3.1971,3.2047,3.2053,3.2109,3.2137,3.2125,3.2185,3.2211,3.2264,3.2282,3.2262,3.2361,3.2386,3.2468,3.2491,3.2512,3.2527,3.2502,3.2604,3.2614,3.2623,3.2654,3.2667,3.2517,3.2517,3.2517,3.2516,0,3.2091,3.2144,3.2188,3.224,3.2273,3.2331,3.2344,3.2376,3.2374,3.2387,3.2456,3.2485,3.2534,3.2553,3.2552,3.2634,3.2622,3.2603,3.2566,3.2638,3.2668,3.268,3.2521,3.252,3.2519,3.2519,0,0,3.2205,3.2258,3.2274,3.2296,3.2339,3.2379,3.2435,3.2484,3.251,3.2547,3.2592,3.2659,3.2642,3.2669,3.267,3.2707,3.278,3.2684,3.2684,3.2699,3.2869,3.2882,3.2896,3.2772,3.2774,3.2776,3.2865,0,3.2297,3.2397,3.2403,3.2493,3.254,3.2528,3.2576,3.2607,3.262,3.2661,3.2675,3.2722,3.2696,3.2712,3.2748,3.2763,3.2814,3.2757,3.2813,3.2815,3.2803,3.2911,3.2926,3.3008,3.2877,3.2879,3.288,0,3.2419,3.2459,3.2553,3.2588,3.2608,3.2651,3.2695,3.2735,3.2768,3.2775,3.2804,3.28,3.2855,3.2817,3.2891,3.2853,3.2875,3.2886,3.289,3.2894,3.2851,3.2917,3.3035,3.3047,3.2899,3.2897,3.2896,0,3.249,3.2567,3.2633,3.2653,3.2695,3.2725,3.2744,3.2775,3.2803,3.284,3.2858,3.2901,3.2924,3.2957,3.2963,3.2935,3.3037,3.3,3.3043,3.3043,3.3064,3.3063,3.3186,3.3081,3.3081,3.3081,3.3081,0,3.2592,3.2649,3.2665,3.2706,3.2769,3.2775,3.2837,3.2853,3.288,3.2922,3.2914,3.2953,3.296,3.3,3.3006,3.3065,3.3076,3.3082,3.3082,3.3082,3.3081,3.3096,3.309,3.3084,3.3083,3.3083,3.3082,0,3.2681,3.2695,3.2765,3.2799,3.2809,3.2854,3.2882,3.2919,3.2931,3.2984,3.2997,3.3014,3.3061,3.3071,3.3126,3.3129,3.32,3.3195,3.3189,3.3188,3.3229,3.3224,3.3365,3.3383,3.3268,3.3269,3.327,0,3.2745,3.2789,3.2827,3.2855,3.2875,3.292,3.2948,3.2954,3.2984,3.3024,3.3056,3.3102,3.3139,3.3213,3.323,3.3271,3.3267,3.3313,3.3273,3.327,3.3265,3.3262,3.3265,3.3321,3.3322,3.3323,3.3324,0,3.2856,3.286,3.2901,3.2944,3.2978,3.3012,3.3045,3.3068,3.3078,3.3111,3.3158,3.3187,3.3243,3.3287,3.3328,3.3346,3.3336,3.3336,3.3348,3.3348,3.3341,3.3343,3.3208,3.3333,3.3332,3.3331,3.3331,3.3331,3.2933,3.2971,3.3003,3.3049,3.3074,3.3104,3.314,3.3156,3.3196,3.3243,3.3243,3.3295,3.3324,3.3379,3.3398,3.3437,3.3423,3.344,3.3444,3.3448,3.3451,3.3336,3.3445,3.3445,3.3444,3.3444,3.3444,0,3.3042,3.3062,3.3104,3.3149,3.3184,3.3173,3.3208,3.3237,3.3283,3.3312,3.3348,3.3402,3.3444,3.3464,3.3506,3.3533,3.3529,3.3543,3.3541,3.3544,3.3463,3.3448,3.3545,3.3545,3.3545,3.3545,3.3545,3.3545,3.3103,3.3165,3.3172,3.3246,3.3265,3.3316,3.3337,3.3363,3.3386,3.3446,3.3482,3.3495,3.3519,3.3562,3.36,3.3604,3.3619,3.3635,3.3638,3.3561,3.355,3.3541,3.3526,3.3639,3.3639,3.3716,3.3716,3.3717]}]]